Regional Weather Roundup
Issued by NWS

Home | Current Version | Previous Version | Text Only | Print | Product List | Glossary On
Versions: 1 2 3 4 5 6 7 8 9 10 11 12 13 14 15 16 17 18 19 20 21 22 23 24 25 26 27 28 29 30 31 32 33 34 35 36 37 38 39 40 41 42 43 44 45 46 47 48 49 50
000
ASUS43 KTOP 032159
RWRKS

WEATHER ROUNDUP FOR KANSAS
NATIONAL WEATHER SERVICE GOODLAND KS
500 PM CDT THU SEP 03 2015

NOTE:  "FAIR" INDICATES FEW OR NO CLOUDS BELOW 12,000 FEET WITH NO
SIGNIFICANT WEATHER AND/OR OBSTRUCTIONS TO VISIBILITY.

KSZ001>006-013>018-027>032-041>047-032300-
NORTHWEST KANSAS

CITY           SKY/WX    TMP DP  RH WIND       PRES   REMARKS
GOODLAND       PTSUNNY   94  46  19 S15       29.81F
HAYS           PTSUNNY   99  55  23 S23G35    29.77F HX  97
HILL CITY      PTSUNNY   99  55  23 S16G31    29.75F HX  97
RUSSELL        MOSUNNY   97  58  27 S24G38    29.77F HX  96
$$

KSZ061>065-074>080-084>089-032300-
SOUTHWEST KANSAS

CITY           SKY/WX    TMP DP  RH WIND       PRES   REMARKS
DODGE CITY     CLOUDY    92  56  29 S23G31    29.83F
ELKHART          N/A     96  52  22 S8          N/A
GARDEN CITY    CLOUDY    94  56  27 S18G30    29.80F
GREAT BEND     PTSUNNY   97  59  28 S25G35    29.79F HX  96
LIBERAL        PTSUNNY   99  52  20 S16       29.83F HX  96
$$

KSZ066>073-081>083-090>101-032300-
SOUTHEAST KANSAS

CITY           SKY/WX    TMP DP  RH WIND       PRES   REMARKS
CHANUTE        SUNNY     87  69  54 S15       29.91F
COFFEYVILLE    SUNNY     88  70  55 S12       29.90F
HUTCHINSON     MOSUNNY   93  61  34 S22G30    29.83F
NEWTON         MOSUNNY   93  63  36 S20G30    29.88F
PARSONS        SUNNY     87  71  58 S10G18    29.92F
WICHITA INTL   PTSUNNY   93  63  36 S21G28    29.84F
WICHITA JABRA  MOSUNNY   90  64  42 S18G25    29.85F
WINFIELD       SUNNY     92  64  39 S15       29.88S
$$

KSZ007>012-019>026-033>040-048>060-102>105-032300-
NORTHEAST KANSAS

CITY           SKY/WX    TMP DP  RH WIND       PRES   REMARKS
CONCORDIA      SUNNY     93  62  35 S17G29    29.80S
EMPORIA        SUNNY     90  66  45 S21G26    29.86F
LAWRENCE       SUNNY     91  66  43 S15       29.87F
MANHATTAN      SUNNY     95  64  35 S18G25    29.82S HX  97
OLATHE IND     SUNNY     88  68  51 S16       29.90F
OLATHE EXE     SUNNY     87  68  52 S13G18    29.89F
SALINA         MOSUNNY   96  62  32 S21G26    29.80F HX  97
TOPEKA BILLARD SUNNY     92  67  43 SE18G25   29.85F HX  95
TOPEKA FORBES  SUNNY     92  67  43 S14G23    29.86F HX  95
$$


USA.gov is the U.S. government's official web portal to all federal, state and local government web resources and services.